カタログに戻る

CZ-4C DEB

運用中LEO
NORAD 40342·DEBRIS·🇨🇳 China

打ち上げ Dec 10, 2014 から Jiuquan Satellite Launch Center

Loading…

次のパス (今後24時間)

TLE

最新Source: Space-Track

元期: Sep 14, 2026, 00:52 UTC

1 40342U 14080E   26257.03653243  .00000008  00000-0  10791-3 0  9993
2 40342  63.3858 103.7818 0385122  10.7457 350.1507 13.44669782577225

AllMySatでCZ-4C DEBをリアルタイム追跡

Download on the App Store